Startpagina
METAR-TAF:

METAR-TAF

Vliegvelden :

Vlissingen, Nederland

breedte: 51-27N, lengte: 3-36E, hoogte: 10 m

Actueel weer

Dit bericht is 18 minuten geleden gemaakt, om 09:55 UTC
Wind 21 kt uit het zuidwesten
Temperatuur 6°C
Vochtigheid 87%
Druk 1009 hPa
Zicht 10 km of meer

METAR: EHFS 160955Z AUTO 22021KT 9999 OVC028/// 06/04 Q1009 W///H///

Tijdstip: 11:13 (10:13 UTC)


TAF: ontbreekt

Waarnemingen en weersverwachtingen van meer dan 4000 vliegvelden (METAR en TAF).

De beschikbare stations zijn de gele en rode punten op de kaart.

Ga met uw muis naar het station om de naam te zien.

Klik dan om waarnemingen en weersverwachtingen te zien.

kaart wijzigen: klik op de groene knoppen met een zwart kruis om in te zoomen, op de groene knop met een streepje om uit te zoomen of op de groene pijlen voor aangrenzende kaarten.


METAR-TAF: